{"data":{"norad_id":65371,"epoch":"2026-05-25T02:17:42.775872Z","epoch_age_seconds":69932,"freshness":"FRESH","line1":"1 65371U 25190W   26145.09563398  .00014858  00000+0  51264-3 0  9996","line2":"2 65371  53.1571 173.2522 0001084  91.4729 268.6396 15.30208090 41455","mean_motion":15.3020809,"eccentricity":0.0001084,"inclination_deg":53.1571,"raan_deg":173.2522,"arg_perigee_deg":91.4729,"mean_anomaly_deg":268.6396,"bstar":0.00051264,"rev_number":4145,"period_min":94.104848184406,"perigee_km":474.44801349807,"apogee_km":475.93381498988,"semimajor_km":6853.327914244,"source":"CELESTRAK","updated_at":"2026-05-25T13:38:20.769450Z"}}